Tracking 28794 objects as of 22-Apr-2024
HD Live streaming from Space Station
objects crossing your sky now

STARLINK-4091

Track STARLINK-4091 now!
10-day predictions
STARLINK-4091 is classified as:


NORAD ID: 52830
Int'l Code: 2022-062A
Perigee: 545.8 km
Apogee: 547.9 km
Inclination: 53.2 °
Period: 95.4 minutes
Semi major axis: 6917 km
RCS: Unknown
Launch date: June 17, 2022
Source: United States (US)
Launch site: AIR FORCE EASTERN TEST RANGE (AFETR)
Your satellite tracking list
Your tracking list is empty




NASA's NSSDC Master Catalog

Two Line Element Set (TLE):
1 52830U 22062A   24112.67499686  .00011627  00000-0  74716-3 0  9990
2 52830  53.2160 238.4374 0001542  81.7032 278.4135 15.08850866102573
Source of the keplerian elements: AFSPC